Regional Weather Roundup
Issued by NWS

Home | Current Version | Previous Version | Graphics & Text | Print | Product List | Glossary On
Versions: 1 2 3 4 5 6 7 8 9 10 11 12 13 14 15 16 17 18 19 20 21 22 23 24 25 26 27 28 29 30 31 32 33 34 35 36 37 38 39 40 41 42 43 44 45 46 47 48 49 50
000
ASUS43 KMPX 181801
RWRMN
WEATHER ROUNDUP FOR MINNESOTA
NATIONAL WEATHER SERVICE TWIN CITIES/CHANHASSEN MN
100 PM CDT WED OCT 18 2017


NOTE: "FAIR" INDICATES FEW OR NO CLOUDS BELOW 12,000 FEET WITH NO
SIGNIFICANT WEATHER AND/OR OBSTRUCTIONS TO VISIBILITY. N/A MEANS
CURRENT SKY AND/OR WEATHER CONDITIONS ARE NOT AVAILABLE.

MNZ060>063-068>070-181900-
   Twin Cities Metro

CITY           SKY/WX    TMP DP  RH WIND       PRES   REMARKS
TWIN CITIES    PTSUNNY   65  48  54 W14G24    29.84R
6HR MIN TEMP:  49; 6HR MAX TEMP:  66;

ST PAUL        MOSUNNY   66  49  54 SW12      29.84S
CRYSTAL        SUNNY     64  44  48 W12       29.82R
BLAINE         PTSUNNY   64  46  52 SW12G20   29.82R
LAKEVILLE      SUNNY     64  48  55 W13G18    29.84S
EDEN PRAIRIE   SUNNY     65  46  50 W10       29.84R
6HR MIN TEMP:  51; 6HR MAX TEMP:  66;

SOUTH ST PAUL  MOSUNNY   67  47  47 W8        29.83R
LAKE ELMO      FAIR      68  50  52 SW17      29.83S
$$
MNZ001>005-007-008-013>017-022>024-027-028-181900-
   Northwest Minnesota

CITY           SKY/WX    TMP DP  RH WIND       PRES   REMARKS
BEMIDJI        CLOUDY    60  20  22 W26G33    29.77R
HALLOCK        SUNNY     59  12  15 W30G38    29.70R
ROSEAU         SUNNY     57  23  26 W26G35    29.65S
WARROAD        SUNNY     57  28  33 W31G38    29.64S
CROOKSTON      SUNNY     61  19  20 W31G39    29.79S
FOSSTON        CLOUDY    57  21  24 W24G31    29.80S
DETROIT LAKES  CLOUDY    55  23  28 NW17      29.86S
MOORHEAD       CLOUDY    59  25  27 NW17      29.88S
PARK RAPIDS    PTSUNNY   59  26  28 NW17G29   29.80R
MAHNOMEN       FAIR      58  25  28 W26       29.82S
$$
MNZ006-009>011-018-025>026-181900-
   North Central Minnesota

CITY           SKY/WX    TMP DP  RH WIND       PRES   REMARKS
BAUDETTE       PTSUNNY   58  27  30 W18G31    29.64R
FLAG ISLAND    SUNNY     55  27  33 W23G39    29.56S
INTL FALLS     CLOUDY    62  19  19 W18G28    29.63R
6HR MIN TEMP:  57; 6HR MAX TEMP:  65; 6HR PCP: TRACE;

WASKISH        CLOUDY    55  36  47 W18G24    29.71R
BIG FORK       CLOUDY    63  30  29 W10G24    29.70S
LONGVILLE      MOSUNNY   63  25  23 W17G25    29.77R
GRAND RAPIDS   CLOUDY    64  31  28 W18G24    29.75R
CRANE LAKE     SUNNY     64  27  24 W7G17     29.63S
ORR            CLOUDY    64  23  20 W17G28    29.63S
COOK           MOSUNNY   66  30  26 W17G26    29.66R
WALKER         FAIR      60  20  21 W16G31    29.77S
$$
MNZ012-019>021-037-181900-
   Northeast Minnesota

CITY           SKY/WX    TMP DP  RH WIND       PRES   REMARKS
DULUTH         MOSUNNY   64  46  52 SW15      29.70S
6HR MIN TEMP:  52; 6HR MAX TEMP:  65;

ELY            CLOUDY    63  37  39 W16G24    29.64S
HIBBING        CLOUDY    63  33  32 W13G25    29.69R
EVELETH        CLOUDY    65  26  23 W10G23    29.68F
DULUTH HARBOR  PTSUNNY   64  46  52 SW17      29.69F
TWO HARBORS    CLOUDY    70  48  46 SW9G20    29.65F
SILVER BAY     PTSUNNY   66  45  45 SW8       29.63F
GRAND MARAIS     N/A     57  49  74 W7        29.62F
G MARAIS ARPRT MOSUNNY   55  43  62 S8G17     29.63F
$$
MNZ029>031-032-039>041-046>048-054>057-064-181900-
   West Central Minnesota

CITY           SKY/WX    TMP DP  RH WIND       PRES   REMARKS
FERGUS FALLS   PTSUNNY   57  25  28 NW22G29   29.89R
WHEATON        CLOUDY    64  27  24 NW17G24   29.92R
MORRIS         SUNNY     64  34  32 NW20G26   29.88R
ALEXANDRIA     SUNNY     63  29  27 NW23G30   29.88R
ELBOW LAKE     FAIR      60  25  26 W23G31    29.89R
WADENA         SUNNY     61  30  31 NW17G28   29.84R
GLENWOOD       SUNNY     64  32  29 NW24G32   29.87R
APPLETON       SUNNY     66  27  22 NW18G26   29.89R
BENSON         SUNNY     66  30  26 N18G25    29.90R
ORTONVILLE     SUNNY     64  32  29 N20       29.91R
MADISON        SUNNY     68  34  28 NW18G24   29.91R
WILLMAR        FAIR      66  39  37 NW17      29.89R
$$
MNZ033>034-036-042>043-049>051-058-059-181900-
   Central Minnesota

CITY           SKY/WX    TMP DP  RH WIND       PRES   REMARKS
ST CLOUD       MOSUNNY   68  43  40 NW10      29.82R
6HR MIN TEMP:  47; 6HR MAX TEMP:  68;

SAUK CENTRE    FAIR      64  32  30 NW21G30   29.86R
PAYNESVILLE    CLOUDY    66  38  36 NW14G21   29.87R
AITKIN         CLOUDY    64  36  34 W15G23    29.75R
PINE RIVER     CLOUDY    61  28  29 NW14G25   29.82R
BRAINERD       CLOUDY    65  34  31 NW12      29.80R
STAPLES        MOSUNNY   63  28  27 NW21G26   29.82R
LONG PRAIRIE   FAIR      63  30  29 W17G30    29.85R
LITTLE FALLS   CLOUDY    64  23  20 W16G23    29.82R
LITCHFIELD     MOSUNNY   68  37  32 NW13G20   29.86R
BUFFALO        MOSUNNY   65  45  48 SW7       29.84S
MAPLE LAKE     MOSUNNY   68  46  46 W10       29.85R
HUTCHINSON     SUNNY     69  41  35 NW10G20   29.87R
$$
MNZ037-044-045-052-053-181900-
   East Central Minnesota

CITY           SKY/WX    TMP DP  RH WIND       PRES   REMARKS
PRINCETON      MOSUNNY   68  46  45 W7        29.81S
MORA           MOSUNNY   63  46  55 SW9       29.80S
CAMBRIDGE      MOSUNNY   66  48  52 W8        29.81R
RUSH CITY      MOSUNNY   65  47  52 SW8       29.80S
MOOSE LAKE     MOSUNNY   64  41  42 SW10G16   29.73S
HINCKLEY       FAIR      64  48  55 SW13      29.78S
CLOQUET        PTSUNNY   64  39  39 SW15      29.71F
MCGREGOR       CLOUDY    64  39  39 W12G23    29.76R
$$
MNZ071>073-080-081-089-090-097-098-181900-
   Southwest Minnesota

CITY           SKY/WX    TMP DP  RH WIND       PRES   REMARKS
MONTEVIDEO     SUNNY     70  36  28 N14G20    29.89S
GRANITE FALLS  CLOUDY    69  36  29 NW13G22   29.91R
CANBY          SUNNY     69  28  21 N14G24    29.92R
MARSHALL       SUNNY     68  32  26 N18G26    29.90R
REDWOOD FALLS  MOSUNNY   70  33  25 N14G26    29.88R
OLIVIA         MOSUNNY   68  39  34 NW15G23   29.88R
PIPESTONE      SUNNY     70  28  21 N14G20    29.92R
WORTHINGTON    CLOUDY    67  41  38 N12G21    29.92R
JACKSON        MOSUNNY   64  41  42 NW14G20   29.92R
TRACY          SUNNY     70  34  26 N18G28    29.91R
SLAYTON        MOSUNNY   68  34  28 N23G31    29.92S
$$
MNZ065>067-074>077-082>085-091>093-181900-
   South Central Minnesota

CITY           SKY/WX    TMP DP  RH WIND       PRES   REMARKS
MANKATO        SUNNY     68  48  48 W17       29.88R
NEW ULM        MOSUNNY   68  39  34 NW14      29.87R
ST JAMES       MOSUNNY   70  41  35 W16G23    29.89R
FAIRMONT       SUNNY     68  46  45 W18       29.89S
GLENCOE        MOSUNNY   68  44  41 W10       29.85R
FARIBAULT      MOSUNNY   68  48  49 SW15      29.86F
OWATONNA       PTSUNNY   70  48  46 SW16      29.87F
WASECA         MOSUNNY   70  46  43 SW12G22   29.89S
$$
MNZ078>079-086>088-094>096-181900-
   Southeast Minnesota

CITY           SKY/WX    TMP DP  RH WIND       PRES   REMARKS
ROCHESTER      SUNNY     70  50  49 S20G32    29.86F
6HR MIN TEMP:  47; 6HR MAX TEMP:  70; 6HR PCP: TRACE;

RED WING       MOSUNNY   70  45  40 SW6       29.83F
STANTON        PTSUNNY   69  47  44 SW17G26   29.83F
DODGE CENTER   MOSUNNY   66  46  48 SW13G21   29.88R
WINONA         MOSUNNY   72  48  43 S10G17    29.85F
AUSTIN         MOSUNNY   66  48  52 SW16G24   29.89R
PRESTON        SUNNY     68  47  47 S15G25    29.88F
$$
ABBREVIATIONS USED IN REMARKS
   TC - TEMPERATURES IN CELSIUS
  WCI - WIND CHILL INDEX
   HX - HEAT INDEX
  VSB - VISIBILITY
$$




USA.gov is the U.S. government's official web portal to all federal, state and local government web resources and services.